Location: Oberkirch
(48.5323°N, 8.0787°E)
Time: 14:31:26
(UTC+00:00)

Tiros 1 despin weight - Pass Details

Date: 14 February 2026
Orbit: 556 x 593 km, 48.2° (Epoch: 5 March)

Event Time Altitude Azimuth Distance (km) Brightness Sun altitude
Rises 20:18:23 0° 282° (WNW) 2,737 ? -35.0°
Reaches altitude 10° 20:20:39 10° 278° (W) 1,843 ? -35.3°
Enters shadow 20:21:16 14° 276° (W) 1,609 ? -35.4°
